Tracking 20724 objects as of 2-Jun-2020
HD Live streaming from Space Station
objects crossing your sky now

ONEWEB-0042

Track ONEWEB-0042 now!
10-day predictions
ONEWEB-0042 is classified as:


NORAD ID: 45441
Int'l Code: 2020-020T
Perigee: 587.5 km
Apogee: 623.4 km
Inclination: 87.5 °
Period: 96.7 minutes
Semi major axis: 6976 km
RCS: Unknown
Launch date: March 21, 2020
Source: United Kingdom (UK)
Launch site: TYURATAM MISSILE AND SPACE COMPLEX (TTMTR)
aabbcc
Your satellite tracking list
Your tracking list is empty




NASA's NSSDC Master Catalog

Two Line Element Set (TLE):
1 45441U 20020T   20153.91667824 -.00013652  00000-0 -14191-2 0  9993
2 45441  87.5450 114.7327 0025790  35.5079 180.1243 14.89881086 10919
Source of the keplerian elements: AFSPC